Hourly Weather Roundup
Issued by NWS Central Illinois

Home | Current Version | Previous Version | Text Only | Print | Product List | Glossary On
Versions: 1 2 3 4 5 6 7 8 9 10 11 12 13 14 15 16 17 18 19 20 21 22 23 24 25 26 27 28 29 30 31 32 33 34 35 36 37 38 39 40 41 42 43 44 45 46 47 48 49 50
601
NZUS43 KILX 250710
HWRILX

Area Weather Roundup
National Weather Service Lincoln IL
200 AM CDT SUN JUN 25 2017

NOTE:  "FAIR" indicates few or no clouds below 12,000 feet, with
       no sigificant weather and/or obstructions to visibility.


CITY           SKY/WX    TMP DP  RH WIND       PRES   REMARKS
Bloomington    MOCLDY    60  45  57 W10       30.12R
Champaign      PTCLDY    56  46  69 SW8       30.11F
Danville       PTCLDY    54  49  82 SW6       30.08F
Decatur        PTCLDY    57  48  72 SW8       30.12S
Effingham      PTCLDY    56  53  91 CALM      30.16F
Flora          PTCLDY    60  51  73 W3        30.16F
Galesburg      PTCLDY    53  49  87 CALM      30.14R
Jacksonville   CLEAR     59  47  64 SW6       30.13S
Lacon          MOCLDY    55  51  89 CALM      30.10S
Lawrenceville  PTCLDY    59  55  87 CALM      30.15S
Litchfield     PTCLDY    54  51  92 S3        30.15S
$$


CITY           SKY/WX    TMP DP  RH WIND       PRES   REMARKS
Lincoln        CLEAR     62  47  60 SW3       30.10S
Macomb         CLEAR     55  50  82 NW7       30.16R
Mattoon        PTCLDY    61  49  64 SW7       30.12F
Mt Carmel AP   PTCLDY    56  53  92 W3        30.15F
Olney-Noble AP CLEAR     58  55  91 CALM      30.16S
Paris AP       CLEAR     53  49  87 SW7       30.12F
Peoria         PTCLDY    59  48  67 NW3       30.12S
Pontiac        MOCLDY    60  51  72 W6        30.10S
Rantoul        CLEAR     59  47  65 SW7       30.10F
Robinson       CLEAR     55  52  89 CALM      30.15F
Springfield    PTCLDY    62  47  57 SW7       30.12F
Taylorville    PTCLDY    55  50  83 S6        30.13F
$$

...REGIONAL REPORTS...


CITY           SKY/WX    TMP DP  RH WIND       PRES   REMARKS
Chicago O`Hare PTCLDY    57  50  77 W8        30.05S
Kankakee       MOCLDY    57  48  72 W8        30.08S
Moline         CLEAR     54  50  86 S3        30.11S
Mount Sterling CLEAR     62  48  60 W9G18     30.14R
Mount Vernon   CLEAR     55  55 100 CALM      30.17F FOG
Pittsfield     CLEAR     64  49  58 SW6       30.15S
Quincy         PTCLDY    61  50  67 NW8       30.15R
Rockford       CLEAR     54  50  86 W3        30.09S
$$


CITY           SKY/WX    TMP DP  RH WIND       PRES   REMARKS
Burlington     CLEAR     59  46  62 NW3       30.13S
Cedar Rapids   CLEAR     50  46  86 NW6       30.12S
Des Moines     PTCLDY    57  46  66 NW6       30.17S
Kirksville     CLEAR     57  48  72 NW5       30.17R
Ottumwa        CLEAR     50  45  83 W6        30.15S
St Louis       PTCLDY    66  46  48 SW7       30.16F
$$


CITY           SKY/WX    TMP DP  RH WIND       PRES   REMARKS
Terre Haute    CLEAR     57  51  80 SW3       30.13S
Evansville     PTCLDY    59  53  80 S3        30.16S
Indianapolis   CLEAR     56  50  80 SW6       30.11F
Lafayette      PTCLDY    53  51  93 W3        30.09F
Madison        CLEAR     52  49  89 VRB5      30.04S
Milwaukee      PTCLDY    55  49  80 W12       30.02S
$$






USA.gov is the U.S. government's official web portal to all federal, state and local government web resources and services.